Regional Weather Roundup
Issued by NWS

Home | Current Version | Previous Version | Graphics & Text | Print | Product List | Glossary On
Versions: 1 2 3 4 5 6 7 8 9 10 11 12 13 14 15 16 17 18 19 20 21 22 23 24 25 26 27 28 29 30 31 32 33 34 35 36 37 38 39 40 41 42 43 44 45 46 47 48 49 50
000
ASUS43 KBIS 211010
RWRND

NORTH DAKOTA REGIONAL WEATHER ROUNDUP
NATIONAL WEATHER SERVICE BISMARCK ND
500 AM CDT TUE OCT 21 2014

NOTE: "FAIR" INDICATES FEW OR NO CLOUDS BELOW 12,000 FEET WITH NO
SIGNIFICANT WEATHER AND/OR OBSTRUCTIONS TO VISIBILITY.


NDZ001>003-009>011-017-211100-
NORTHWEST NORTH DAKOTA

CITY           SKY/WX    TMP DP  RH WIND       PRES   REMARKS
WILLISTON      CLEAR     40  37  89 CALM      29.77F
MINOT          CLEAR     52  34  50 SE13      29.84F
MINOT AFB      CLEAR     40  36  86 SE8       29.84F
$$

NDZ018>021-031>035-040>046-211100-
SOUTHWEST NORTH DAKOTA

CITY           SKY/WX    TMP DP  RH WIND       PRES   REMARKS
BISMARCK       CLEAR     54  36  50 SE13      29.87F
DICKINSON      CLEAR     41  35  79 SE8       29.78F
GARRISON         N/A     50  36  58 SE10      29.85F
HETTINGER ARPT CLEAR     42  36  79 CALM      29.81F
$$

NDZ004>008-012>016-024-026-027-054-211100-
NORTHEAST NORTH DAKOTA

CITY           SKY/WX    TMP DP  RH WIND       PRES   REMARKS
GRAND FORKS    CLEAR     39  36  89 SE12      30.03F
GRND FRKS AFB  CLEAR     37  37  99 S8        30.03F
DEVILS LAKE    CLEAR     46  34  61 SE16      29.94F
$$

NDZ022-023-025-028>030-036>039-047>053-211100-
SOUTHEAST NORTH DAKOTA

CITY           SKY/WX    TMP DP  RH WIND       PRES   REMARKS
FARGO          CLEAR     44  38  79 SE15      30.05S
JAMESTOWN      CLEAR     46  38  73 SE14      29.96F
$$




USA.gov is the U.S. government's official web portal to all federal, state and local government web resources and services.